Time,TemperatureF,DewpointF,PressureIn,WindDirection,WindDirectionDegrees,WindSpeedMPH,WindSpeedGustMPH,Humidity,HourlyPrecipIn,Conditions,Clouds,dailyrainin,SoftwareType,DateUTC
2013-01-17 00:01:00,35.3,31.5,30.00,SSW,213,0.0,0.0,86,0.00,,OVC013,0.00,VWS V12.08,2013-01-17 05:01:00,
2013-01-17 00:03:00,35.3,31.5,30.00,SSW,212,0.0,0.0,86,0.00,,OVC013,0.00,VWS V12.08,2013-01-17 05:03:00,
2013-01-17 00:08:00,35.3,31.2,30.00,SW,218,0.0,0.0,85,0.00,,OVC013,0.00,VWS V12.08,2013-01-17 05:08:00,
2013-01-17 00:13:00,35.3,30.9,30.00,SW,219,0.0,0.0,84,0.00,,OVC013,0.00,VWS V12.08,2013-01-17 05:13:00,
2013-01-17 00:18:00,35.3,31.2,30.00,SSW,201,0.0,0.0,85,0.00,,OVC013,0.00,VWS V12.08,2013-01-17 05:18:00,
2013-01-17 00:23:00,35.3,31.2,30.00,SSW,212,0.0,0.0,85,0.00,,OVC013,0.00,VWS V12.08,2013-01-17 05:23:00,
2013-01-17 00:28:00,35.3,30.9,30.00,SW,223,0.0,0.0,84,0.00,,OVC013,0.00,VWS V12.08,2013-01-17 05:28:00,
2013-01-17 00:33:00,35.3,31.2,30.00,SW,224,0.0,0.0,85,0.00,,OVC013,0.00,VWS V12.08,2013-01-17 05:33:00,
2013-01-17 00:38:00,35.3,31.2,30.00,SW,226,0.0,0.0,85,0.00,,OVC013,0.00,VWS V12.08,2013-01-17 05:38:00,
2013-01-17 00:43:00,35.1,30.8,30.00,SW,215,0.0,0.0,84,0.00,,OVC013,0.00,VWS V12.08,2013-01-17 05:43:00,
2013-01-17 00:48:00,35.1,30.8,30.00,SSW,210,0.0,0.0,84,0.00,,OVC110,0.00,VWS V12.08,2013-01-17 05:48:00,
2013-01-17 00:53:00,35.1,30.5,30.00,SW,231,0.0,0.0,83,0.00,,OVC110,0.00,VWS V12.08,2013-01-17 05:53:00,
2013-01-17 00:58:00,35.1,30.5,30.00,SSW,208,0.0,0.0,83,0.00,,OVC110,0.00,VWS V12.08,2013-01-17 05:58:00,
2013-01-17 01:03:00,35.1,30.5,30.00,SSW,197,0.0,0.0,83,0.00,,OVC110,0.00,VWS V12.08,2013-01-17 06:03:00,
2013-01-17 01:08:00,35.1,30.5,30.00,SSW,206,0.0,0.0,83,0.00,,OVC110,0.00,VWS V12.08,2013-01-17 06:08:00,
2013-01-17 01:13:00,35.1,30.5,30.00,SW,218,0.0,0.0,83,0.00,,OVC110,0.00,VWS V12.08,2013-01-17 06:13:00,
2013-01-17 01:18:00,34.9,30.0,30.00,SW,217,0.0,0.0,82,0.00,,OVC110,0.00,VWS V12.08,2013-01-17 06:18:00,
2013-01-17 01:23:00,34.9,29.7,30.00,SSW,211,0.0,0.0,81,0.00,,OVC110,0.00,VWS V12.08,2013-01-17 06:23:00,
2013-01-17 01:28:00,34.9,30.0,30.00,SSW,213,0.0,0.0,82,0.00,,OVC110,0.00,VWS V12.08,2013-01-17 06:28:00,
2013-01-17 01:33:00,34.9,30.0,30.00,SW,218,0.0,0.0,82,0.00,,OVC110,0.00,VWS V12.08,2013-01-17 06:33:00,
2013-01-17 01:38:00,35.1,29.9,30.00,SW,220,0.0,0.0,81,0.00,,OVC110,0.00,VWS V12.08,2013-01-17 06:38:00,
2013-01-17 01:43:00,35.1,29.9,30.00,SSW,200,0.0,0.0,81,0.00,,OVC110,0.00,VWS V12.08,2013-01-17 06:43:00,
2013-01-17 01:48:00,34.9,29.4,30.00,SW,218,0.0,0.0,80,0.00,,OVC100,0.00,VWS V12.08,2013-01-17 06:48:00,
2013-01-17 01:53:00,35.1,29.6,30.00,SW,219,0.0,0.0,80,0.00,,OVC100,0.00,VWS V12.08,2013-01-17 06:53:00,
2013-01-17 01:58:00,34.9,29.4,30.00,SW,232,0.0,0.0,80,0.00,,OVC100,0.00,VWS V12.08,2013-01-17 06:58:00,
2013-01-17 02:03:00,34.9,29.4,30.03,WSW,252,0.0,0.0,80,0.00,,OVC100,0.00,VWS V12.08,2013-01-17 07:03:00,
2013-01-17 02:08:00,34.9,29.7,30.03,SW,224,0.0,0.0,81,0.00,,OVC100,0.00,VWS V12.08,2013-01-17 07:08:00,
2013-01-17 02:13:00,34.9,29.4,30.03,SSW,192,0.0,0.0,80,0.00,,OVC100,0.00,VWS V12.08,2013-01-17 07:13:00,
2013-01-17 02:18:00,34.9,29.4,30.03,SW,224,0.0,0.0,80,0.00,,OVC100,0.00,VWS V12.08,2013-01-17 07:18:00,
2013-01-17 02:23:00,34.9,29.4,30.03,SW,220,0.0,0.0,80,0.00,,OVC100,0.00,VWS V12.08,2013-01-17 07:23:00,
2013-01-17 02:28:00,34.7,29.2,30.03,SW,214,0.0,0.0,80,0.00,,OVC100,0.00,VWS V12.08,2013-01-17 07:28:00,
2013-01-17 02:33:00,34.9,29.7,30.00,SW,216,0.0,0.0,81,0.00,,OVC100,0.00,VWS V12.08,2013-01-17 07:33:00,
2013-01-17 02:38:00,34.9,29.7,30.00,SW,216,0.0,0.0,81,0.00,,OVC100,0.00,VWS V12.08,2013-01-17 07:38:00,
2013-01-17 02:43:00,34.9,30.3,30.00,SSW,213,0.0,0.0,83,0.00,,OVC100,0.00,VWS V12.08,2013-01-17 07:43:00,
2013-01-17 02:48:00,34.7,29.8,30.00,SSW,212,0.0,0.0,82,0.00,,FEW100,0.00,VWS V12.08,2013-01-17 07:48:00,
2013-01-17 02:53:00,34.6,29.0,30.00,SSW,205,0.0,0.0,80,0.00,,FEW100,0.00,VWS V12.08,2013-01-17 07:53:00,
2013-01-17 02:58:00,34.7,29.2,30.00,SW,222,0.0,0.0,80,0.00,,FEW100,0.00,VWS V12.08,2013-01-17 07:58:00,
2013-01-17 03:03:00,34.7,29.2,30.00,SSW,208,0.0,0.0,80,0.00,,FEW100,0.00,VWS V12.08,2013-01-17 08:03:00,
2013-01-17 03:08:00,34.6,29.3,30.00,SW,225,0.0,0.0,81,0.00,,FEW100,0.00,VWS V12.08,2013-01-17 08:08:00,
2013-01-17 03:13:00,34.6,29.3,30.00,SW,225,0.0,0.0,81,0.00,,FEW100,0.00,VWS V12.08,2013-01-17 08:13:00,
2013-01-17 03:18:00,34.6,29.3,30.03,SW,217,0.0,0.0,81,0.00,,FEW100,0.00,VWS V12.08,2013-01-17 08:18:00,
2013-01-17 03:23:00,34.6,29.0,30.03,SW,228,0.0,0.0,80,0.00,,FEW100,0.00,VWS V12.08,2013-01-17 08:23:00,
2013-01-17 03:28:00,34.6,28.4,30.03,ENE,65,0.0,0.0,78,0.00,,FEW100,0.00,VWS V12.08,2013-01-17 08:28:00,
2013-01-17 03:33:00,34.6,28.4,30.03,SW,225,0.0,0.0,78,0.00,,FEW100,0.00,VWS V12.08,2013-01-17 08:33:00,
2013-01-17 03:38:00,34.6,28.7,30.03,SW,219,0.0,0.0,79,0.00,,FEW100,0.00,VWS V12.08,2013-01-17 08:38:00,
2013-01-17 03:43:00,34.4,27.9,30.03,SW,226,0.0,0.0,77,0.00,,FEW100,0.00,VWS V12.08,2013-01-17 08:43:00,
2013-01-17 03:48:00,34.6,28.1,30.03,SW,226,0.0,0.0,77,0.00,,CLR,0.00,VWS V12.08,2013-01-17 08:48:00,
2013-01-17 03:53:00,34.4,27.9,30.03,SW,224,0.0,0.0,77,0.00,,CLR,0.00,VWS V12.08,2013-01-17 08:53:00,
2013-01-17 03:58:00,34.6,27.8,30.03,SW,217,0.0,0.0,76,0.00,,CLR,0.00,VWS V12.08,2013-01-17 08:58:00,
2013-01-17 04:03:00,34.4,27.6,30.06,SW,222,0.0,0.0,76,0.00,,CLR,0.00,VWS V12.08,2013-01-17 09:03:00,
2013-01-17 04:08:00,34.4,27.6,30.06,SW,229,0.0,0.0,76,0.00,,CLR,0.00,VWS V12.08,2013-01-17 09:08:00,
2013-01-17 04:13:00,34.4,27.6,30.06,WSW,251,0.0,0.0,76,0.00,,CLR,0.00,VWS V12.08,2013-01-17 09:13:00,
2013-01-17 04:18:00,34.2,27.1,30.03,SW,234,0.0,0.0,75,0.00,,CLR,0.00,VWS V12.08,2013-01-17 09:18:00,
2013-01-17 04:23:00,34.2,26.1,30.03,SW,226,0.0,0.0,72,0.00,,CLR,0.00,VWS V12.08,2013-01-17 09:23:00,
2013-01-17 04:28:00,34.4,26.3,30.03,SW,235,0.0,0.0,72,0.00,,CLR,0.00,VWS V12.08,2013-01-17 09:28:00,
2013-01-17 04:33:00,34.2,26.5,30.03,WSW,249,0.0,0.0,73,0.00,,CLR,0.00,VWS V12.08,2013-01-17 09:33:00,
2013-01-17 04:38:00,34.2,25.8,30.03,SSW,204,0.0,0.0,71,0.00,,CLR,0.00,VWS V12.08,2013-01-17 09:38:00,
2013-01-17 04:43:00,34.0,25.6,30.03,WSW,245,0.0,0.0,71,0.00,,CLR,0.00,VWS V12.08,2013-01-17 09:43:00,
2013-01-17 04:48:00,34.0,25.3,30.03,SW,224,0.0,0.0,70,0.00,,CLR,0.00,VWS V12.08,2013-01-17 09:48:00,
2013-01-17 04:53:00,33.8,24.4,30.03,WSW,243,0.0,0.0,68,0.00,,CLR,0.00,VWS V12.08,2013-01-17 09:53:00,
2013-01-17 04:58:00,33.8,23.7,30.03,West,272,0.0,0.0,66,0.00,,CLR,0.00,VWS V12.08,2013-01-17 09:58:00,
2013-01-17 05:03:00,33.8,24.1,30.03,WSW,255,0.0,0.0,67,0.00,,CLR,0.00,VWS V12.08,2013-01-17 10:03:00,
2013-01-17 05:08:00,33.8,24.4,30.03,WSW,240,0.0,0.0,68,0.00,,CLR,0.00,VWS V12.08,2013-01-17 10:08:00,
2013-01-17 05:13:00,33.8,24.4,30.03,SSW,212,0.0,0.0,68,0.00,,CLR,0.00,VWS V12.08,2013-01-17 10:13:00,
2013-01-17 05:18:00,33.8,24.4,30.06,WSW,240,0.0,0.0,68,0.00,,CLR,0.00,VWS V12.08,2013-01-17 10:18:00,
2013-01-17 05:23:00,33.7,24.6,30.06,West,274,0.0,0.0,69,0.00,,CLR,0.00,VWS V12.08,2013-01-17 10:23:00,
2013-01-17 05:28:00,33.5,24.4,30.06,WSW,256,0.0,0.0,69,0.00,,CLR,0.00,VWS V12.08,2013-01-17 10:28:00,
2013-01-17 05:33:00,33.5,24.4,30.03,WSW,254,0.0,0.0,69,0.00,,CLR,0.00,VWS V12.08,2013-01-17 10:33:00,
2013-01-17 05:38:00,33.5,24.4,30.03,SW,226,0.0,0.0,69,0.00,,CLR,0.00,VWS V12.08,2013-01-17 10:38:00,
2013-01-17 05:43:00,33.5,24.8,30.03,WSW,255,0.0,0.0,70,0.00,,CLR,0.00,VWS V12.08,2013-01-17 10:43:00,
2013-01-17 05:48:00,33.3,24.9,30.03,WSW,239,0.0,0.0,71,0.00,,BKN021,0.00,VWS V12.08,2013-01-17 10:48:00,
2013-01-17 05:53:00,33.3,23.9,30.03,WSW,239,0.0,0.0,68,0.00,,BKN021,0.00,VWS V12.08,2013-01-17 10:53:00,
2013-01-17 05:58:00,33.5,24.4,30.03,WSW,250,0.0,0.0,69,0.00,,BKN021,0.00,VWS V12.08,2013-01-17 10:58:00,
2013-01-17 06:03:00,33.5,24.4,30.03,WSW,250,0.0,0.0,69,0.00,,BKN021,0.00,VWS V12.08,2013-01-17 11:03:00,
2013-01-17 06:08:00,33.5,24.4,30.03,WSW,250,0.0,0.0,69,0.00,,BKN021,0.00,VWS V12.08,2013-01-17 11:08:00,
2013-01-17 06:13:00,33.5,24.4,30.03,WSW,250,0.0,0.0,69,0.00,,BKN021,0.00,VWS V12.08,2013-01-17 11:13:00,
2013-01-17 06:18:00,33.5,24.8,30.03,WSW,250,0.0,0.0,70,0.00,,BKN021,0.00,VWS V12.08,2013-01-17 11:18:00,
2013-01-17 06:23:00,33.5,24.8,30.03,WSW,250,0.0,0.0,70,0.00,,BKN021,0.00,VWS V12.08,2013-01-17 11:23:00,
2013-01-17 06:28:00,33.3,24.2,30.03,NW,306,0.0,0.0,69,0.00,,BKN021,0.00,VWS V12.08,2013-01-17 11:28:00,
2013-01-17 06:33:00,33.5,24.1,30.03,West,267,0.0,0.0,68,0.00,,BKN021,0.00,VWS V12.08,2013-01-17 11:33:00,
2013-01-17 06:38:00,33.3,24.2,30.03,SW,221,0.0,0.0,69,0.00,,BKN021,0.00,VWS V12.08,2013-01-17 11:38:00,
2013-01-17 06:43:00,33.3,24.2,30.03,SW,226,0.0,0.0,69,0.00,,BKN021,0.00,VWS V12.08,2013-01-17 11:43:00,
2013-01-17 06:48:00,33.3,23.9,30.06,West,263,0.0,0.0,68,0.00,,SCT110,0.00,VWS V12.08,2013-01-17 11:48:00,
2013-01-17 06:53:00,33.3,23.5,30.06,West,263,0.0,0.0,67,0.00,,SCT110,0.00,VWS V12.08,2013-01-17 11:53:00,
2013-01-17 06:58:00,33.3,23.9,30.06,West,263,0.0,0.0,68,0.00,,SCT110,0.00,VWS V12.08,2013-01-17 11:58:00,
2013-01-17 07:03:00,33.3,23.9,30.03,West,263,0.0,0.0,68,0.00,,BKN021,0.00,VWS V12.08,2013-01-17 12:03:00,
2013-01-17 07:08:00,33.5,24.8,30.03,WSW,243,0.0,0.0,70,0.00,,BKN021,0.00,VWS V12.08,2013-01-17 12:08:00,
2013-01-17 07:13:00,33.3,24.6,30.03,WSW,251,0.0,0.0,70,0.00,,BKN021,0.00,VWS V12.08,2013-01-17 12:13:00,
2013-01-17 07:18:00,33.3,24.2,30.06,WSW,251,0.0,0.0,69,0.00,,BKN021,0.00,VWS V12.08,2013-01-17 12:18:00,
2013-01-17 07:23:00,33.3,24.6,30.06,WSW,251,0.0,0.0,70,0.00,,BKN021,0.00,VWS V12.08,2013-01-17 12:23:00,
2013-01-17 07:28:00,33.3,24.6,30.06,WSW,251,0.0,0.0,70,0.00,,BKN021,0.00,VWS V12.08,2013-01-17 12:28:00,
2013-01-17 07:33:00,33.3,24.6,30.06,WSW,251,0.0,0.0,70,0.00,,BKN021,0.00,VWS V12.08,2013-01-17 12:33:00,
2013-01-17 07:38:00,33.3,24.6,30.06,WSW,250,0.0,0.0,70,0.00,,BKN021,0.00,VWS V12.08,2013-01-17 12:38:00,
2013-01-17 07:43:00,33.3,24.9,30.06,WSW,250,0.0,0.0,71,0.00,,BKN021,0.00,VWS V12.08,2013-01-17 12:43:00,
2013-01-17 07:48:00,33.3,24.9,30.06,SSW,206,0.0,0.0,71,0.00,,BKN021,0.00,VWS V12.08,2013-01-17 12:48:00,
2013-01-17 07:53:00,33.1,24.4,30.06,SW,229,0.0,0.0,70,0.00,,BKN021,0.00,VWS V12.08,2013-01-17 12:53:00,
2013-01-17 08:00:00,33.3,24.6,30.06,WSW,245,0.0,0.0,70,0.00,,BKN021,0.00,VWS V12.08,2013-01-17 13:00:00,
2013-01-17 08:15:00,33.3,25.3,30.09,West,260,0.0,0.0,72,0.00,,BKN021,0.00,VWS V12.08,2013-01-17 13:15:00,
2013-01-17 08:30:00,33.3,24.6,30.09,WSW,251,0.0,0.0,70,0.00,,BKN021,0.00,VWS V12.08,2013-01-17 13:30:00,
2013-01-17 08:45:00,33.3,24.6,30.09,West,277,0.0,0.0,70,0.00,,OVC036,0.00,VWS V12.08,2013-01-17 13:45:00,
2013-01-17 08:55:00,33.5,25.1,30.09,West,263,0.0,0.0,71,0.00,,OVC021,0.00,VWS V12.08,2013-01-17 13:55:00,
2013-01-17 09:00:00,33.5,24.8,30.09,West,264,0.0,0.0,70,0.00,,OVC021,0.00,VWS V12.08,2013-01-17 14:00:00,
2013-01-17 09:05:00,33.7,25.3,30.09,West,267,0.0,0.0,71,0.00,,OVC021,0.00,VWS V12.08,2013-01-17 14:05:00,
2013-01-17 09:10:00,33.7,24.9,30.09,West,266,0.0,0.0,70,0.00,,OVC021,0.00,VWS V12.08,2013-01-17 14:10:00,
2013-01-17 09:15:00,33.7,24.9,30.09,West,267,0.0,0.0,70,0.00,,OVC021,0.00,VWS V12.08,2013-01-17 14:15:00,
2013-01-17 09:20:00,33.8,25.5,30.09,West,267,0.0,0.0,71,0.00,,OVC021,0.00,VWS V12.08,2013-01-17 14:20:00,
2013-01-17 09:25:00,33.8,25.5,30.09,West,266,0.0,0.0,71,0.00,,OVC021,0.00,VWS V12.08,2013-01-17 14:25:00,
2013-01-17 09:30:00,33.8,25.1,30.09,West,266,0.0,0.0,70,0.00,,OVC021,0.00,VWS V12.08,2013-01-17 14:30:00,
2013-01-17 09:35:00,34.0,25.3,30.09,West,267,0.0,0.0,70,0.00,,OVC021,0.00,VWS V12.08,2013-01-17 14:35:00,
2013-01-17 09:40:00,34.0,25.6,30.09,West,267,0.0,0.0,71,0.00,,OVC021,0.00,VWS V12.08,2013-01-17 14:40:00,
2013-01-17 09:45:00,34.2,25.5,30.09,West,267,0.0,0.0,70,0.00,,OVC028,0.00,VWS V12.08,2013-01-17 14:45:00,
2013-01-17 09:50:00,34.2,25.1,30.09,West,267,0.0,0.0,69,0.00,,OVC028,0.00,VWS V12.08,2013-01-17 14:50:00,
2013-01-17 09:55:00,34.4,25.6,30.09,West,266,0.0,0.0,70,0.00,,OVC028,0.00,VWS V12.08,2013-01-17 14:55:00,
2013-01-17 10:01:00,34.2,24.8,30.09,West,267,0.0,0.0,68,0.00,,OVC028,0.00,VWS V12.08,2013-01-17 15:01:00,
2013-01-17 10:06:00,34.2,24.4,30.09,West,266,0.0,0.0,67,0.00,,OVC028,0.00,VWS V12.08,2013-01-17 15:06:00,
2013-01-17 10:11:00,34.4,24.9,30.09,West,267,0.0,0.0,68,0.00,,OVC028,0.00,VWS V12.08,2013-01-17 15:11:00,
2013-01-17 10:16:00,34.4,24.6,30.11,WSW,252,0.0,0.0,67,0.00,,OVC028,0.00,VWS V12.08,2013-01-17 15:16:00,
2013-01-17 10:21:00,34.4,24.6,30.11,West,259,0.0,0.0,67,0.00,,OVC028,0.00,VWS V12.08,2013-01-17 15:21:00,
2013-01-17 10:26:00,34.4,24.2,30.11,NE,48,0.0,0.0,66,0.00,,OVC028,0.00,VWS V12.08,2013-01-17 15:26:00,
2013-01-17 10:31:00,34.6,24.4,30.11,NE,48,0.0,0.0,66,0.00,,OVC028,0.00,VWS V12.08,2013-01-17 15:31:00,
2013-01-17 10:36:00,34.6,24.4,30.11,NE,48,0.0,0.0,66,0.00,,OVC028,0.00,VWS V12.08,2013-01-17 15:36:00,
2013-01-17 10:41:00,34.6,24.8,30.11,North,350,0.0,0.0,67,0.00,,OVC028,0.00,VWS V12.08,2013-01-17 15:41:00,
2013-01-17 10:46:00,34.4,24.6,30.11,NNW,334,0.0,0.0,67,0.00,,OVC022,0.00,VWS V12.08,2013-01-17 15:46:00,
2013-01-17 10:51:00,34.4,24.9,30.11,NE,34,0.0,0.0,68,0.00,,OVC022,0.00,VWS V12.08,2013-01-17 15:51:00,
2013-01-17 10:56:00,34.2,24.8,30.11,NNE,27,0.0,0.0,68,0.00,,OVC022,0.00,VWS V12.08,2013-01-17 15:56:00,
2013-01-17 11:01:00,34.0,24.6,30.09,NNE,28,0.0,0.0,68,0.00,,OVC022,0.00,VWS V12.08,2013-01-17 16:01:00,
2013-01-17 11:06:00,34.0,24.9,30.09,East,101,0.0,0.0,69,0.00,,OVC022,0.00,VWS V12.08,2013-01-17 16:06:00,
2013-01-17 11:11:00,33.8,24.1,30.09,NNE,24,0.0,0.0,67,0.00,,OVC022,0.00,VWS V12.08,2013-01-17 16:11:00,
2013-01-17 11:16:00,34.0,24.6,30.09,NNE,12,0.0,0.0,68,0.00,,OVC022,0.00,VWS V12.08,2013-01-17 16:16:00,
2013-01-17 11:21:00,34.4,24.9,30.09,NNE,33,0.0,0.0,68,0.00,,OVC022,0.00,VWS V12.08,2013-01-17 16:21:00,
2013-01-17 11:26:00,34.4,24.6,30.09,NNE,12,0.0,0.0,67,0.00,,OVC022,0.00,VWS V12.08,2013-01-17 16:26:00,
2013-01-17 11:31:00,34.6,24.8,30.09,ESE,111,0.0,0.0,67,0.00,,OVC022,0.00,VWS V12.08,2013-01-17 16:31:00,
2013-01-17 11:36:00,34.7,24.2,30.09,NE,41,0.0,0.0,65,0.00,,OVC022,0.00,VWS V12.08,2013-01-17 16:36:00,
2013-01-17 11:41:00,34.7,23.5,30.09,East,92,0.0,0.0,63,0.00,,OVC022,0.00,VWS V12.08,2013-01-17 16:41:00,
2013-01-17 11:46:00,34.9,23.6,30.06,NE,35,0.0,0.0,63,0.00,,OVC026,0.00,VWS V12.08,2013-01-17 16:46:00,
2013-01-17 11:51:00,35.3,24.0,30.06,NNE,28,0.0,0.0,63,0.00,,OVC026,0.00,VWS V12.08,2013-01-17 16:51:00,
2013-01-17 11:56:00,35.5,23.4,30.06,NNE,12,0.0,0.0,61,0.00,,OVC026,0.00,VWS V12.08,2013-01-17 16:56:00,
2013-01-17 12:01:00,35.5,23.8,30.06,NNE,27,0.0,0.0,62,0.00,,,0.00,VWS V12.08,2013-01-17 17:01:00,
2013-01-17 12:06:00,35.1,23.0,30.06,NNE,32,0.0,0.0,61,0.00,,,0.00,VWS V12.08,2013-01-17 17:06:00,
2013-01-17 12:11:00,35.3,23.6,30.06,NE,50,0.0,0.0,62,0.00,,,0.00,VWS V12.08,2013-01-17 17:11:00,
2013-01-17 12:16:00,35.6,23.5,30.06,East,79,0.0,0.0,61,0.00,,,0.00,VWS V12.08,2013-01-17 17:16:00,
2013-01-17 12:21:00,35.8,23.7,30.06,ENE,65,0.0,0.0,61,0.00,,,0.00,VWS V12.08,2013-01-17 17:21:00,
2013-01-17 12:26:00,35.8,23.3,30.06,NE,47,0.0,0.0,60,0.00,,,0.00,VWS V12.08,2013-01-17 17:26:00,
2013-01-17 12:31:00,36.0,23.5,30.06,NE,47,0.0,0.0,60,0.00,,,0.00,VWS V12.08,2013-01-17 17:31:00,
2013-01-17 12:36:00,36.0,23.1,30.06,ENE,61,0.0,0.0,59,0.00,,,0.00,VWS V12.08,2013-01-17 17:36:00,
2013-01-17 12:41:00,36.4,24.2,30.06,ENE,61,0.0,0.0,61,0.00,,,0.00,VWS V12.08,2013-01-17 17:41:00,
2013-01-17 12:46:00,36.7,24.9,30.06,ENE,61,0.0,0.0,62,0.00,,OVC018,0.00,VWS V12.08,2013-01-17 17:46:00,
2013-01-17 12:51:00,37.1,24.1,30.06,ESE,117,0.0,0.0,59,0.00,,OVC018,0.00,VWS V12.08,2013-01-17 17:51:00,
2013-01-17 12:56:00,37.3,23.9,30.06,NNE,22,0.0,0.0,58,0.00,,OVC018,0.00,VWS V12.08,2013-01-17 17:56:00,
2013-01-17 13:01:00,37.1,22.0,30.06,NNE,18,0.0,0.0,54,0.00,,OVC018,0.00,VWS V12.08,2013-01-17 18:01:00,
2013-01-17 13:06:00,36.7,23.4,30.06,NE,37,0.0,0.0,58,0.00,,OVC018,0.00,VWS V12.08,2013-01-17 18:06:00,
2013-01-17 13:11:00,36.9,23.1,30.06,NE,52,0.0,0.0,57,0.00,,OVC018,0.00,VWS V12.08,2013-01-17 18:11:00,
2013-01-17 13:16:00,36.4,21.8,30.03,NNE,22,0.0,0.0,55,0.00,,OVC018,0.00,VWS V12.08,2013-01-17 18:16:00,
2013-01-17 13:21:00,36.2,22.0,30.03,ESE,108,0.0,0.0,56,0.00,,OVC018,0.00,VWS V12.08,2013-01-17 18:21:00,
2013-01-17 13:26:00,36.7,23.4,30.03,ESE,117,0.0,0.0,58,0.00,,OVC018,0.00,VWS V12.08,2013-01-17 18:26:00,
2013-01-17 13:31:00,36.9,22.3,30.03,NNE,24,0.0,0.0,55,0.00,,OVC018,0.00,VWS V12.08,2013-01-17 18:31:00,
2013-01-17 13:36:00,36.4,22.2,30.03,NNE,25,0.0,0.0,56,0.00,,OVC018,0.00,VWS V12.08,2013-01-17 18:36:00,
2013-01-17 13:41:00,36.2,22.0,30.03,North,357,0.0,0.0,56,0.00,,OVC018,0.00,VWS V12.08,2013-01-17 18:41:00,
2013-01-17 13:46:00,36.2,22.4,30.03,North,357,0.0,0.0,57,0.00,,BKN031,0.00,VWS V12.08,2013-01-17 18:46:00,
2013-01-17 13:51:00,36.4,23.0,30.03,NNE,33,0.0,0.0,58,0.00,,BKN031,0.00,VWS V12.08,2013-01-17 18:51:00,
2013-01-17 13:56:00,36.2,22.0,30.03,NE,38,0.0,0.0,56,0.00,,BKN031,0.00,VWS V12.08,2013-01-17 18:56:00,
2013-01-17 14:01:00,36.2,22.8,30.03,NE,45,0.0,0.0,58,0.00,,BKN031,0.00,VWS V12.08,2013-01-17 19:01:00,
2013-01-17 14:06:00,36.2,23.2,30.03,ESE,116,0.0,0.0,59,0.00,,BKN031,0.00,VWS V12.08,2013-01-17 19:06:00,
2013-01-17 14:11:00,36.2,22.8,30.03,ESE,108,0.0,0.0,58,0.00,,BKN031,0.00,VWS V12.08,2013-01-17 19:11:00,
2013-01-17 14:16:00,36.4,23.8,30.03,SW,226,0.0,0.0,60,0.00,,BKN031,0.00,VWS V12.08,2013-01-17 19:16:00,
2013-01-17 14:21:00,36.4,23.4,30.03,SW,226,0.0,0.0,59,0.00,,BKN031,0.00,VWS V12.08,2013-01-17 19:21:00,
2013-01-17 14:26:00,36.4,23.4,30.03,SW,226,0.0,0.0,59,0.00,,BKN031,0.00,VWS V12.08,2013-01-17 19:26:00,
2013-01-17 14:31:00,36.4,23.4,30.03,SW,226,0.0,0.0,59,0.00,,BKN031,0.00,VWS V12.08,2013-01-17 19:31:00,
2013-01-17 14:36:00,36.4,23.4,30.03,SW,226,0.0,0.0,59,0.00,,BKN031,0.00,VWS V12.08,2013-01-17 19:36:00,
2013-01-17 14:41:00,36.4,23.4,30.03,SW,226,0.0,0.0,59,0.00,,BKN031,0.00,VWS V12.08,2013-01-17 19:41:00,
2013-01-17 14:46:00,36.2,22.4,30.03,SW,226,0.0,0.0,57,0.00,,OVC022,0.00,VWS V12.08,2013-01-17 19:46:00,
2013-01-17 14:51:00,35.8,22.1,30.03,SW,226,0.0,0.0,57,0.00,,OVC022,0.00,VWS V12.08,2013-01-17 19:51:00,
2013-01-17 14:56:00,35.8,22.5,30.03,SW,226,0.0,0.0,58,0.00,,OVC022,0.00,VWS V12.08,2013-01-17 19:56:00,
2013-01-17 15:01:00,35.8,22.5,30.03,SW,226,0.0,0.0,58,0.00,,OVC022,0.00,VWS V12.08,2013-01-17 20:01:00,
2013-01-17 15:06:00,35.8,22.9,30.03,SW,226,0.0,0.0,59,0.00,,OVC022,0.00,VWS V12.08,2013-01-17 20:06:00,
2013-01-17 15:11:00,35.8,23.3,30.03,SW,226,0.0,0.0,60,0.00,,OVC022,0.00,VWS V12.08,2013-01-17 20:11:00,
2013-01-17 15:16:00,35.8,23.7,30.03,SW,226,0.0,0.0,61,0.00,,OVC022,0.00,VWS V12.08,2013-01-17 20:16:00,
2013-01-17 15:21:00,35.8,23.7,30.03,ESE,113,0.0,0.0,61,0.00,,OVC022,0.00,VWS V12.08,2013-01-17 20:21:00,
2013-01-17 15:26:00,35.8,24.1,30.03,ESE,113,0.0,0.0,62,0.00,,OVC022,0.00,VWS V12.08,2013-01-17 20:26:00,
2013-01-17 15:31:00,36.0,24.3,30.03,ESE,113,0.0,0.0,62,0.00,,OVC022,0.00,VWS V12.08,2013-01-17 20:31:00,
2013-01-17 15:36:00,36.0,23.9,30.03,North,5,0.0,0.0,61,0.00,,OVC022,0.00,VWS V12.08,2013-01-17 20:36:00,
2013-01-17 15:41:00,36.0,24.3,30.03,ESE,120,0.0,0.0,62,0.00,,OVC022,0.00,VWS V12.08,2013-01-17 20:41:00,
2013-01-17 15:46:00,35.8,24.5,30.03,ESE,119,0.0,0.0,63,0.00,,SCT023,0.00,VWS V12.08,2013-01-17 20:46:00,
2013-01-17 15:51:00,35.6,23.9,30.03,ESE,119,0.0,0.0,62,0.00,,SCT023,0.00,VWS V12.08,2013-01-17 20:51:00,
2013-01-17 15:56:00,35.6,23.5,30.03,WSW,237,0.0,0.0,61,0.00,,SCT023,0.00,VWS V12.08,2013-01-17 20:56:00,
2013-01-17 16:01:00,35.3,23.6,30.03,NE,54,0.0,0.0,62,0.00,,BKN021,0.00,VWS V12.08,2013-01-17 21:01:00,
2013-01-17 16:06:00,35.3,23.6,30.03,SE,136,0.0,0.0,62,0.00,,BKN021,0.00,VWS V12.08,2013-01-17 21:06:00,
2013-01-17 16:11:00,35.3,23.6,30.03,SE,136,0.0,0.0,62,0.00,,BKN021,0.00,VWS V12.08,2013-01-17 21:11:00,
2013-01-17 16:16:00,35.3,24.0,30.03,SE,136,0.0,0.0,63,0.00,,BKN021,0.00,VWS V12.08,2013-01-17 21:16:00,
2013-01-17 16:21:00,35.1,23.4,30.03,NNE,26,0.0,0.0,62,0.00,,BKN021,0.00,VWS V12.08,2013-01-17 21:21:00,
2013-01-17 16:26:00,35.1,23.8,30.03,NE,47,0.0,0.0,63,0.00,,BKN021,0.00,VWS V12.08,2013-01-17 21:26:00,
2013-01-17 16:31:00,34.9,24.4,30.03,NE,47,0.0,0.0,65,0.00,,BKN021,0.00,VWS V12.08,2013-01-17 21:31:00,
2013-01-17 16:36:00,34.9,24.4,30.03,NE,47,0.0,0.0,65,0.00,,BKN021,0.00,VWS V12.08,2013-01-17 21:36:00,
2013-01-17 16:41:00,34.9,24.0,30.03,NE,46,0.0,0.0,64,0.00,,BKN021,0.00,VWS V12.08,2013-01-17 21:41:00,
2013-01-17 16:46:00,34.9,24.0,30.06,NE,46,0.0,0.0,64,0.00,,OVC021,0.00,VWS V12.08,2013-01-17 21:46:00,
2013-01-17 16:51:00,34.9,24.0,30.06,NE,47,0.0,0.0,64,0.00,,OVC021,0.00,VWS V12.08,2013-01-17 21:51:00,
2013-01-17 16:56:00,34.9,24.0,30.06,NE,47,0.0,0.0,64,0.00,,OVC021,0.00,VWS V12.08,2013-01-17 21:56:00,
2013-01-17 17:01:00,34.9,24.0,30.06,NE,47,0.0,0.0,64,0.00,,OVC021,0.00,VWS V12.08,2013-01-17 22:01:00,
2013-01-17 17:06:00,34.7,23.8,30.06,NE,47,0.0,0.0,64,0.00,,OVC021,0.00,VWS V12.08,2013-01-17 22:06:00,
2013-01-17 17:11:00,34.7,23.8,30.06,NE,47,0.0,0.0,64,0.00,,OVC021,0.00,VWS V12.08,2013-01-17 22:11:00,
2013-01-17 17:16:00,34.7,24.2,30.06,NE,46,0.0,0.0,65,0.00,,OVC021,0.00,VWS V12.08,2013-01-17 22:16:00,
2013-01-17 17:21:00,34.6,24.0,30.06,NE,47,0.0,0.0,65,0.00,,OVC021,0.00,VWS V12.08,2013-01-17 22:21:00,
2013-01-17 17:26:00,34.6,24.0,30.06,NE,47,0.0,0.0,65,0.00,,OVC021,0.00,VWS V12.08,2013-01-17 22:26:00,
2013-01-17 17:31:00,34.6,24.0,30.06,NE,47,0.0,0.0,65,0.00,,OVC021,0.00,VWS V12.08,2013-01-17 22:31:00,
2013-01-17 17:36:00,34.6,24.0,30.06,NE,46,0.0,0.0,65,0.00,,OVC021,0.00,VWS V12.08,2013-01-17 22:36:00,
2013-01-17 17:41:00,34.6,24.0,30.06,NE,47,0.0,0.0,65,0.00,,OVC021,0.00,VWS V12.08,2013-01-17 22:41:00,
2013-01-17 17:46:00,34.4,23.9,30.06,NE,46,0.0,0.0,65,0.00,,OVC023,0.00,VWS V12.08,2013-01-17 22:46:00,
2013-01-17 17:51:00,34.4,23.9,30.06,NE,46,0.0,0.0,65,0.00,,OVC023,0.00,VWS V12.08,2013-01-17 22:51:00,
2013-01-17 17:56:00,34.2,23.7,30.06,NE,47,0.0,0.0,65,0.00,,OVC023,0.00,VWS V12.08,2013-01-17 22:56:00,
2013-01-17 18:01:00,34.2,23.7,30.06,NE,46,0.0,0.0,65,0.00,,OVC023,0.00,VWS V12.08,2013-01-17 23:01:00,
2013-01-17 18:06:00,34.2,23.7,30.06,NE,47,0.0,0.0,65,0.00,,OVC023,0.00,VWS V12.08,2013-01-17 23:06:00,
2013-01-17 18:11:00,34.2,24.0,30.06,NE,47,0.0,0.0,66,0.00,,OVC023,0.00,VWS V12.08,2013-01-17 23:11:00,
2013-01-17 18:16:00,34.0,23.9,30.09,NE,47,0.0,0.0,66,0.00,,OVC023,0.00,VWS V12.08,2013-01-17 23:16:00,
2013-01-17 18:21:00,34.0,23.9,30.09,NE,47,0.0,0.0,66,0.00,,OVC023,0.00,VWS V12.08,2013-01-17 23:21:00,
2013-01-17 18:26:00,33.8,23.7,30.09,NE,47,0.0,0.0,66,0.00,,OVC023,0.00,VWS V12.08,2013-01-17 23:26:00,
2013-01-17 18:31:00,33.8,24.1,30.06,NE,47,0.0,0.0,67,0.00,,OVC023,0.00,VWS V12.08,2013-01-17 23:31:00,
2013-01-17 18:36:00,33.7,23.9,30.06,NE,47,0.0,0.0,67,0.00,,OVC023,0.00,VWS V12.08,2013-01-17 23:36:00,
2013-01-17 18:41:00,33.7,24.2,30.06,NE,47,0.0,0.0,68,0.00,,OVC023,0.00,VWS V12.08,2013-01-17 23:41:00,
2013-01-17 18:46:00,33.7,24.6,30.06,NE,46,0.0,0.0,69,0.00,,SCT023,0.00,VWS V12.08,2013-01-17 23:46:00,
2013-01-17 18:51:00,33.7,24.6,30.06,NE,46,0.0,0.0,69,0.00,,SCT023,0.00,VWS V12.08,2013-01-17 23:51:00,
2013-01-17 18:56:00,33.7,24.6,30.06,NE,47,0.0,0.0,69,0.00,,SCT023,0.00,VWS V12.08,2013-01-17 23:56:00,
2013-01-17 19:01:00,33.5,24.4,30.09,NE,47,0.0,0.0,69,0.00,,SCT023,0.00,VWS V12.08,2013-01-18 00:01:00,
2013-01-17 19:06:00,33.5,24.4,30.09,NE,47,0.0,0.0,69,0.00,,SCT023,0.00,VWS V12.08,2013-01-18 00:06:00,
2013-01-17 19:11:00,33.3,24.6,30.09,NE,46,0.0,0.0,70,0.00,,SCT023,0.00,VWS V12.08,2013-01-18 00:11:00,
2013-01-17 19:16:00,33.3,24.6,30.09,NE,47,0.0,0.0,70,0.00,,CLR,0.00,VWS V12.08,2013-01-18 00:16:00,
2013-01-17 19:21:00,33.3,25.3,30.09,NE,47,0.0,0.0,72,0.00,,CLR,0.00,VWS V12.08,2013-01-18 00:21:00,
2013-01-17 19:26:00,33.1,25.1,30.09,NE,46,0.0,0.0,72,0.00,,CLR,0.00,VWS V12.08,2013-01-18 00:26:00,
2013-01-17 19:31:00,33.1,25.4,30.09,NE,46,0.0,0.0,73,0.00,,CLR,0.00,VWS V12.08,2013-01-18 00:31:00,
2013-01-17 19:36:00,33.1,25.4,30.09,NE,47,0.0,0.0,73,0.00,,CLR,0.00,VWS V12.08,2013-01-18 00:36:00,
2013-01-17 19:41:00,33.1,25.8,30.09,NE,47,0.0,0.0,74,0.00,,CLR,0.00,VWS V12.08,2013-01-18 00:41:00,
2013-01-17 19:46:00,33.1,25.8,30.09,NE,47,0.0,0.0,74,0.00,,CLR,0.00,VWS V12.08,2013-01-18 00:46:00,
2013-01-17 19:51:00,33.1,26.1,30.09,NE,47,0.0,0.0,75,0.00,,CLR,0.00,VWS V12.08,2013-01-18 00:51:00,
2013-01-17 19:56:00,33.1,26.1,30.09,NE,46,0.0,0.0,75,0.00,,CLR,0.00,VWS V12.08,2013-01-18 00:56:00,
2013-01-17 20:01:00,33.1,26.1,30.09,NE,47,0.0,0.0,75,0.00,,CLR,0.00,VWS V12.08,2013-01-18 01:01:00,
2013-01-17 20:06:00,33.1,26.1,30.09,NE,47,0.0,0.0,75,0.00,,CLR,0.00,VWS V12.08,2013-01-18 01:06:00,
2013-01-17 20:11:00,32.9,25.9,30.09,NE,47,0.0,0.0,75,0.00,,CLR,0.00,VWS V12.08,2013-01-18 01:11:00,
2013-01-17 20:16:00,32.9,25.9,30.09,NE,47,0.0,0.0,75,0.00,,CLR,0.00,VWS V12.08,2013-01-18 01:16:00,
2013-01-17 20:21:00,32.8,26.0,30.09,NE,47,0.0,0.0,76,0.00,,CLR,0.00,VWS V12.08,2013-01-18 01:21:00,
2013-01-17 20:26:00,32.8,26.0,30.09,NE,47,0.0,0.0,76,0.00,,CLR,0.00,VWS V12.08,2013-01-18 01:26:00,
2013-01-17 20:31:00,32.8,26.4,30.09,NE,47,0.0,0.0,77,0.00,,CLR,0.00,VWS V12.08,2013-01-18 01:31:00,
2013-01-17 20:36:00,32.9,27.1,30.09,WSW,256,0.0,0.0,79,0.00,,CLR,0.00,VWS V12.08,2013-01-18 01:36:00,
2013-01-17 20:41:00,32.9,27.5,30.09,West,268,0.0,0.0,80,0.00,,CLR,0.00,VWS V12.08,2013-01-18 01:41:00,
2013-01-17 20:46:00,32.8,27.3,30.09,West,268,0.0,0.0,80,0.00,,CLR,0.00,VWS V12.08,2013-01-18 01:46:00,
2013-01-17 20:51:00,32.8,27.3,30.09,West,268,0.0,0.0,80,0.00,,CLR,0.00,VWS V12.08,2013-01-18 01:51:00,
2013-01-17 20:56:00,32.8,27.3,30.09,West,268,0.0,0.0,80,0.00,,CLR,0.00,VWS V12.08,2013-01-18 01:56:00,
2013-01-17 21:01:00,32.8,27.6,30.09,West,268,0.0,0.0,81,0.00,,CLR,0.00,VWS V12.08,2013-01-18 02:01:00,
2013-01-17 21:06:00,32.8,27.6,30.09,West,268,0.0,0.0,81,0.00,,CLR,0.00,VWS V12.08,2013-01-18 02:06:00,
2013-01-17 21:11:00,32.8,27.6,30.09,West,268,0.0,0.0,81,0.00,,CLR,0.00,VWS V12.08,2013-01-18 02:11:00,
2013-01-17 21:16:00,32.8,27.6,30.09,West,268,0.0,0.0,81,0.00,,CLR,0.00,VWS V12.08,2013-01-18 02:16:00,
2013-01-17 21:21:00,32.6,27.1,30.09,North,357,0.0,0.0,80,0.00,,CLR,0.00,VWS V12.08,2013-01-18 02:21:00,
2013-01-17 21:26:00,32.6,27.1,30.09,NE,38,0.0,0.0,80,0.00,,CLR,0.00,VWS V12.08,2013-01-18 02:26:00,
2013-01-17 21:31:00,32.6,27.1,30.09,WSW,245,0.0,0.0,80,0.00,,CLR,0.00,VWS V12.08,2013-01-18 02:31:00,
2013-01-17 21:36:00,32.6,27.4,30.09,WSW,245,0.0,0.0,81,0.00,,CLR,0.00,VWS V12.08,2013-01-18 02:36:00,
2013-01-17 21:41:00,32.6,27.4,30.09,WSW,245,0.0,0.0,81,0.00,,CLR,0.00,VWS V12.08,2013-01-18 02:41:00,
2013-01-17 21:46:00,32.4,27.2,30.09,WSW,245,0.0,0.0,81,0.00,,CLR,0.00,VWS V12.08,2013-01-18 02:46:00,
2013-01-17 21:51:00,32.4,27.2,30.09,WSW,245,0.0,0.0,81,0.00,,CLR,0.00,VWS V12.08,2013-01-18 02:51:00,
2013-01-17 21:56:00,32.2,27.1,30.09,WSW,245,0.0,0.0,81,0.00,,CLR,0.00,VWS V12.08,2013-01-18 02:56:00,
2013-01-17 22:01:00,32.2,27.1,30.09,WSW,245,0.0,0.0,81,0.00,,CLR,0.00,VWS V12.08,2013-01-18 03:01:00,
2013-01-17 22:06:00,32.2,27.4,30.09,WSW,245,0.0,0.0,82,0.00,,CLR,0.00,VWS V12.08,2013-01-18 03:06:00,
2013-01-17 22:11:00,32.2,27.4,30.09,WSW,245,0.0,0.0,82,0.00,,CLR,0.00,VWS V12.08,2013-01-18 03:11:00,
2013-01-17 22:16:00,32.0,27.2,30.09,WSW,255,0.0,0.0,82,0.00,,CLR,0.00,VWS V12.08,2013-01-18 03:16:00,
2013-01-17 22:21:00,32.0,27.5,30.09,WSW,255,0.0,0.0,83,0.00,,CLR,0.00,VWS V12.08,2013-01-18 03:21:00,
2013-01-17 22:26:00,32.0,27.5,30.09,WSW,255,0.0,0.0,83,0.00,,CLR,0.00,VWS V12.08,2013-01-18 03:26:00,
2013-01-17 22:31:00,31.7,27.1,30.09,WSW,255,0.0,0.0,83,0.00,,CLR,0.00,VWS V12.08,2013-01-18 03:31:00,
2013-01-17 22:36:00,31.7,27.1,30.09,WSW,255,0.0,0.0,83,0.00,,CLR,0.00,VWS V12.08,2013-01-18 03:36:00,
2013-01-17 22:41:00,31.5,26.9,30.09,WSW,255,0.0,0.0,83,0.00,,CLR,0.00,VWS V12.08,2013-01-18 03:41:00,
2013-01-17 22:46:00,31.3,27.1,30.09,WSW,255,0.0,0.0,84,0.00,,CLR,0.00,VWS V12.08,2013-01-18 03:46:00,
2013-01-17 22:51:00,31.1,27.2,30.09,WSW,255,0.0,0.0,85,0.00,,CLR,0.00,VWS V12.08,2013-01-18 03:51:00,
2013-01-17 22:56:00,31.1,27.2,30.09,WSW,255,0.0,0.0,85,0.00,,CLR,0.00,VWS V12.08,2013-01-18 03:56:00,
2013-01-17 23:01:00,31.0,27.3,30.09,SSW,211,0.0,0.0,86,0.00,,CLR,0.00,VWS V12.08,2013-01-18 04:01:00,
2013-01-17 23:06:00,31.0,27.5,30.09,SW,232,0.0,0.0,87,0.00,,CLR,0.00,VWS V12.08,2013-01-18 04:06:00,
2013-01-17 23:11:00,31.0,27.5,30.09,SW,226,0.0,0.0,87,0.00,,CLR,0.00,VWS V12.08,2013-01-18 04:11:00,
2013-01-17 23:16:00,31.0,27.3,30.11,SSW,207,0.0,0.0,86,0.00,,CLR,0.00,VWS V12.08,2013-01-18 04:16:00,
2013-01-17 23:21:00,30.8,27.1,30.11,SSW,208,0.0,0.0,86,0.00,,CLR,0.00,VWS V12.08,2013-01-18 04:21:00,
2013-01-17 23:26:00,30.8,26.8,30.11,SW,227,0.0,0.0,85,0.00,,CLR,0.00,VWS V12.08,2013-01-18 04:26:00,
2013-01-17 23:31:00,30.8,26.8,30.11,WSW,246,0.0,0.0,85,0.00,,CLR,0.00,VWS V12.08,2013-01-18 04:31:00,
2013-01-17 23:36:00,30.8,26.5,30.11,SSW,209,0.0,0.0,84,0.00,,CLR,0.00,VWS V12.08,2013-01-18 04:36:00,
2013-01-17 23:41:00,30.6,26.4,30.11,SW,222,0.0,0.0,84,0.00,,CLR,0.00,VWS V12.08,2013-01-18 04:41:00,
2013-01-17 23:46:00,30.6,26.4,30.11,SW,221,0.0,0.0,84,0.00,,CLR,0.00,VWS V12.08,2013-01-18 04:46:00,
2013-01-17 23:51:00,30.6,26.4,30.11,SW,227,0.0,0.0,84,0.00,,CLR,0.00,VWS V12.08,2013-01-18 04:51:00,
2013-01-17 23:56:00,30.6,26.1,30.11,SW,230,0.0,0.0,83,0.00,,CLR,0.00,VWS V12.08,2013-01-18 04:56:00,